Regional Weather Roundup
Issued by NWS Newport/Morehead, NC

Current Version | Previous Version | Graphics & Text | Print | Product List | Glossary Off
Versions: 1 2 3 4 5 6 7 8 9 10 11 12 13 14 15 16 17 18 19 20 21 22 23 24 25 26 27 28 29 30 31 32 33 34 35 36 37 38 39 40 41 42 43 44 45 46 47 48 49 50

000
ASUS42 KMHX 220513
RWRMHX
WEATHER ROUNDUP FOR EASTERN NORTH CAROLINA
NATIONAL WEATHER SERVICE NEWPORT/MOREHEAD CITY NC
100 AM EDT THU JUN 22 2017

NOTE: "FAIR" INDICATES FEW OR NO CLOUDS BELOW 12,000 FEET
WITH NO SIGNIFICANT WEATHER AND/OR OBSTRUCTIONS TO VISIBILITY

NCZ015>017-031-032-045>047-102-103-220600-
NORTH COAST

CITY           SKY/WX    TMP DP  RH WIND       PRES   REMARKS
EDENTON        MOCLDY    77  73  87 SW9       30.08S
ELIZABETH CITY PTCLDY    75  74  96 SW10      30.06S
KITTY HAWK     CLEAR     75  72  88 SW3       30.05F
MANTEO         PTCLDY    74  72  91 SW9       30.07F

$$

NCZ045>047-081-094-103-104-220600-
CENTRAL COAST

CITY           SKY/WX    TMP DP  RH WIND       PRES   REMARKS
FRISCO         CLOUDY    78  74  87 SW8       30.08F

$$

NCZ095-097-098-100-101-220600-
SOUTHERN COAST

CITY           SKY/WX    TMP DP  RH WIND       PRES   REMARKS
BEAUFORT       MOCLDY    78  77  96 SW8       30.09S
CEDAR ISLAND   NOT AVBL
JACKSONVILLE   PTCLDY    73  73 100 S3        30.08F
PINEY ISLAND   CLOUDY   N/A N/A N/A SW6       30.08F
WILMINGTON     PTCLDY    77  75  93 SW7       30.09F


$$

NCZ011>013-027>030-043-044-078>080-089-090>093-098-220600-
COASTAL PLAIN

CITY           SKY/WX    TMP DP  RH WIND       PRES   REMARKS
AHOSKIE          N/A     71  70  98 CALM      30.07R
CLINTON        MOCLDY    73  73 100 CALM      30.10S
ELIZABETHTOWN  NOT AVBL
GOLDSBORO      MOCLDY    75  75 100 SW6       30.07S
GREENVILLE     MOCLDY    73  73 100 SW8       30.09S
HAVELOCK       MOCLDY    75  73  93 SW7       30.09F
KENANSVILLE    MOCLDY    73  72  94 SW3       30.10S
KINSTON        CLOUDY    74  73  93 SW7       30.09F
NEW BERN       CLOUDY    73  73 100 SW5       30.09F
RICHLANDS      PTCLDY    72  71  97 CALM      30.10F
ROCKY MOUNT    CLOUDY    74  74 100 S5        30.08R
WASHINGTON     CLOUDY    73  72  96 SW10      30.08S
WHITEVILLE     PTCLDY    74  73  95 CALM      30.10S

$$

AMZ130-135-150-152-154-156-158-170-250-252-270-ANZ085-086-088-633-658-670-220600-
MARINE OBSERVATIONS

STATION/POSITION TIME  TEMP    WIND        PRES    WAVE   SWELL
                       AIR SEA DIR/SP/G            HT/PER HT/PER
                 (UTC) (F)     (DEG/KT/KT) (MB)    (FT/S) (FT/S)
CHESAPEAKE LIGHT NOT AVBL
64 E VA BEACH    0450   73 70  240/ 14/ 14 1017.8    3/ 5   2/13
DUCK             0448   77 64  240/ 14/ 18 1017.7
2 E DUCK         NOT AVBL
OREGON INLET     0442   77 78  220/ 18/ 19 1017.9
13E OREGON INLT  0448      71                N/A     3/ 4   2/13
HATTERAS CG      0442   77 78  240/  7/ 11 1018.5
DIAMOND BUOY     0450   79 80  230/ 16/ 17 1018.6    3/ 3   2/ 7
CAPE LOOKOUT     0500   78     230/  9/ 12 1018.7
BEAUFORT LAB     0448   78 77  230/  3/  8 1018.3
30 SE NEW RVR IN 0408   79 80  230/ 12/ 16 1019.3
30 SE NEW RVR IN 0443      80                N/A     3/ 7   2/13
27 SE WRIGHTSVLE 0408   78 79  220/ 10/ 12 1018.6
5 SE WRIGHTSVLE  0408   79 78  220/  8/ 10 1019.2
225 S CAPE HAT   0450   81 82  190/ 14/ 16 1021.3    4/ 7   3/ 7
41 SE CHARLESTON 0450   80 81  200/  8/ 10 1019.4    4/ 7   3/ 7

$$




USA.gov is the U.S. government's official web portal to all federal, state and local government web resources and services.